When you browse on this site, cookies collect data to enhance your experience and personalize the content and advertising you see.
Visit our Privacy Policy to learn more. By continuing to use the site, you agree to this use of cookies and data.
  • In Hungary
  • List of Countries
  • For 7 days
  • Water Temperature
  • Satellite Maps
  • Weather Map
  • News
  • Weather Widgets
  • user-avatar
    Login

    Hourly Weather Mazari Sharif

    Today, 21 April, Sunday

    Time Temperature Precipitation Wind Pressure Humidity
    00:00 +20°C° 0.1 mm 1 mps 652 mmHg 59%
    01:00 +19°C° 0.1 mm 1 mps 652 mmHg 59%
    02:00 +18°C° 0.1 mm 1 mps 651 mmHg 63%
    03:00 +16°C° 0.1 mm 1 mps 651 mmHg 67%
    04:00 +16°C° 0.1 mm 2 mps 651 mmHg 71%
    05:00 +14°C° 0 mm 3 mps 652 mmHg 74%
    06:00 +14°C° 0 mm 4 mps 652 mmHg 77%
    07:00 +14°C° 0 mm 5 mps 652 mmHg 80%
    08:00 +14°C° 0 mm 4 mps 653 mmHg 79%
    09:00 +14°C° 0 mm 4 mps 653 mmHg 78%
    10:00 +14°C° 0 mm 3 mps 653 mmHg 76%
    11:00 +15°C° 0.1 mm 4 mps 653 mmHg 71%
    12:00 +17°C° 0.1 mm 4 mps 653 mmHg 66%
    13:00 +18°C° 0.1 mm 4 mps 653 mmHg 61%
    14:00 +17°C° 0.5 mm 4 mps 653 mmHg 62%
    15:00 +17°C° 0.5 mm 4 mps 653 mmHg 64%
    16:00 +15°C° 0.5 mm 5 mps 652 mmHg 65%
    17:00 +14°C° 0.6 mm 4 mps 653 mmHg 67%
    18:00 +13°C° 0.6 mm 4 mps 653 mmHg 69%
    19:00 +13°C° 0.6 mm 3 mps 653 mmHg 71%
    20:00 +12°C° 0.5 mm 3 mps 654 mmHg 71%
    21:00 +12°C° 0.5 mm 3 mps 654 mmHg 72%
    22:00 +12°C° 0.5 mm 3 mps 654 mmHg 72%
    23:00 +12°C° 0.3 mm 2 mps 654 mmHg 73%

    Tomorrow, 22 April, Monday

    Time Temperature Precipitation Wind Pressure Humidity
    00:00 +12°C° 0.3 mm 2 mps 654 mmHg 75%
    01:00 +12°C° 0.3 mm 2 mps 654 mmHg 76%
    02:00 +11°C° 0.1 mm 1 mps 654 mmHg 78%
    03:00 +11°C° 0.1 mm 1 mps 654 mmHg 79%
    04:00 +11°C° 0.1 mm 1 mps 654 mmHg 81%
    05:00 +12°C° 0 mm 1 mps 655 mmHg 77%
    06:00 +13°C° 0 mm 2 mps 655 mmHg 73%
    07:00 +14°C° 0 mm 2 mps 656 mmHg 69%
    08:00 +16°C° 0 mm 2 mps 656 mmHg 64%
    09:00 +17°C° 0 mm 3 mps 656 mmHg 58%
    10:00 +19°C° 0 mm 3 mps 656 mmHg 52%
    11:00 +20°C° 0 mm 3 mps 656 mmHg 49%
    12:00 +22°C° 0 mm 3 mps 655 mmHg 45%
    13:00 +24°C° 0 mm 3 mps 655 mmHg 41%
    14:00 +24°C° 0 mm 3 mps 655 mmHg 41%
    15:00 +24°C° 0 mm 3 mps 654 mmHg 40%
    16:00 +25°C° 0 mm 3 mps 654 mmHg 39%
    17:00 +23°C° 0.2 mm 2 mps 654 mmHg 44%
    18:00 +21°C° 0.2 mm 2 mps 654 mmHg 49%
    19:00 +20°C° 0.2 mm 1 mps 653 mmHg 54%
    20:00 +19°C° 0 mm 2 mps 653 mmHg 55%
    21:00 +19°C° 0 mm 2 mps 653 mmHg 57%
    22:00 +19°C° 0 mm 2 mps 653 mmHg 58%
    23:00 +19°C° 0 mm 2 mps 653 mmHg 58%

    Day after tomorrow, 23 April, Tuesday

    Time Temperature Precipitation Wind Pressure Humidity
    00:00 +19°C° 0 mm 2 mps 653 mmHg 58%
    01:00 +19°C° 0 mm 2 mps 653 mmHg 58%
    02:00 +19°C° 0.1 mm 2 mps 652 mmHg 59%
    03:00 +18°C° 0.1 mm 2 mps 652 mmHg 60%
    04:00 +18°C° 0.1 mm 2 mps 652 mmHg 62%
    05:00 +19°C° 0.2 mm 2 mps 653 mmHg 57%
    06:00 +20°C° 0.2 mm 3 mps 653 mmHg 53%
    07:00 +21°C° 0.2 mm 3 mps 653 mmHg 48%
    08:00 +24°C° 0 mm 2 mps 654 mmHg 41%
    09:00 +26°C° 0 mm 2 mps 654 mmHg 33%
    10:00 +27°C° 0 mm 2 mps 654 mmHg 25%
    11:00 +28°C° 0 mm 2 mps 654 mmHg 25%
    12:00 +28°C° 0 mm 2 mps 653 mmHg 26%
    13:00 +29°C° 0 mm 3 mps 653 mmHg 26%
    14:00 +29°C° 0.3 mm 3 mps 652 mmHg 28%
    15:00 +28°C° 0.3 mm 4 mps 652 mmHg 30%
    16:00 +28°C° 0.3 mm 5 mps 651 mmHg 32%
    17:00 +26°C° 1.4 mm 5 mps 651 mmHg 41%
    18:00 +22°C° 1.4 mm 4 mps 650 mmHg 50%
    19:00 +20°C° 1.4 mm 4 mps 649 mmHg 59%
    20:00 +20°C° 0.5 mm 3 mps 649 mmHg 60%
    21:00 +20°C° 0.5 mm 3 mps 650 mmHg 61%
    22:00 +20°C° 0.5 mm 2 mps 650 mmHg 63%
    23:00 +18°C° 0.7 mm 4 mps 649 mmHg 71%

    24 April, Wednesday

    Time Temperature Precipitation Wind Pressure Humidity
    00:00 +16°C° 0.7 mm 7 mps 649 mmHg 80%
    01:00 +13°C° 0.7 mm 10 mps 649 mmHg 89%
    02:00 +11°C° 1.7 mm 9 mps 649 mmHg 88%
    03:00 +10°C° 1.7 mm 8 mps 650 mmHg 87%
    04:00 +8°C° 1.7 mm 7 mps 650 mmHg 86%
    05:00 +6°C° 0.5 mm 7 mps 651 mmHg 86%
    06:00 +7°C° 0.5 mm 6 mps 652 mmHg 86%
    07:00 +7°C° 0.5 mm 6 mps 652 mmHg 86%
    08:00 +5°C° 0.3 mm 6 mps 653 mmHg 85%
    09:00 +5°C° 0.3 mm 6 mps 653 mmHg 84%
    10:00 +5°C° 0.3 mm 7 mps 653 mmHg 83%
    11:00 +5°C° 0.3 mm 6 mps 653 mmHg 83%
    12:00 +5°C° 0.3 mm 6 mps 654 mmHg 83%
    13:00 +5°C° 0.3 mm 6 mps 654 mmHg 83%
    14:00 +4°C° 0.5 mm 6 mps 654 mmHg 83%
    15:00 +4°C° 0.5 mm 6 mps 654 mmHg 84%
    16:00 +4°C° 0.5 mm 6 mps 655 mmHg 85%
    17:00 +5°C° 0.4 mm 5 mps 655 mmHg 84%
    18:00 +5°C° 0.4 mm 5 mps 656 mmHg 83%
    19:00 +5°C° 0.4 mm 4 mps 656 mmHg 82%
    20:00 +4°C° 0.3 mm 4 mps 657 mmHg 81%
    21:00 +4°C° 0.3 mm 3 mps 657 mmHg 80%
    22:00 +4°C° 0.3 mm 3 mps 657 mmHg 80%
    23:00 +4°C° 0.4 mm 3 mps 657 mmHg 79%

    25 April, Thursday

    Time Temperature Precipitation Wind Pressure Humidity
    00:00 +5°C° 0.4 mm 2 mps 657 mmHg 79%
    01:00 +5°C° 0.4 mm 2 mps 657 mmHg 79%
    02:00 +5°C° 0.3 mm 2 mps 656 mmHg 79%
    03:00 +4°C° 0.3 mm 2 mps 656 mmHg 79%
    04:00 +5°C° 0.3 mm 1 mps 656 mmHg 80%
    05:00 +5°C° 0.2 mm 2 mps 657 mmHg 78%
    06:00 +5°C° 0.2 mm 2 mps 657 mmHg 76%
    07:00 +5°C° 0.2 mm 2 mps 657 mmHg 74%
    08:00 +6°C° 0.1 mm 2 mps 657 mmHg 70%
    09:00 +7°C° 0.1 mm 2 mps 658 mmHg 66%
    10:00 +8°C° 0.1 mm 2 mps 658 mmHg 62%
    11:00 +9°C° 0 mm 2 mps 658 mmHg 59%
    12:00 +9°C° 0 mm 2 mps 657 mmHg 57%
    13:00 +10°C° 0 mm 2 mps 657 mmHg 54%
    14:00 +10°C° 0 mm 2 mps 657 mmHg 53%
    15:00 +10°C° 0 mm 2 mps 657 mmHg 52%
    16:00 +10°C° 0 mm 2 mps 657 mmHg 51%
    17:00 +10°C° 0 mm 2 mps 657 mmHg 52%
    18:00 +9°C° 0 mm 2 mps 657 mmHg 53%
    19:00 +9°C° 0 mm 2 mps 657 mmHg 54%
    20:00 +10°C° 0 mm 1 mps 657 mmHg 57%
    21:00 +9°C° 0 mm 1 mps 657 mmHg 59%
    22:00 +9°C° 0 mm 1 mps 657 mmHg 61%
    23:00 +9°C° 0 mm 1 mps 657 mmHg 63%

    26 April, Friday

    Time Temperature Precipitation Wind Pressure Humidity
    00:00 +9°C° 0 mm 1 mps 656 mmHg 65%
    01:00 +8°C° 0 mm 1 mps 656 mmHg 67%
    02:00 +7°C° 0 mm 0 mps 656 mmHg 68%
    03:00 +7°C° 0 mm 0 mps 655 mmHg 70%
    04:00 +6°C° 0 mm 0 mps 655 mmHg 71%
    05:00 +7°C° 0 mm 0 mps 656 mmHg 68%
    06:00 +8°C° 0 mm 0 mps 656 mmHg 65%
    07:00 +9°C° 0 mm 0 mps 656 mmHg 62%
    08:00 +10°C° 0 mm 1 mps 656 mmHg 60%
    09:00 +10°C° 0 mm 2 mps 657 mmHg 57%
    10:00 +11°C° 0 mm 3 mps 657 mmHg 54%
    11:00 +12°C° 0 mm 3 mps 657 mmHg 53%
    12:00 +12°C° 0 mm 3 mps 656 mmHg 52%
    13:00 +13°C° 0 mm 3 mps 656 mmHg 52%
    14:00 +13°C° 0.1 mm 3 mps 656 mmHg 53%
    15:00 +12°C° 0.1 mm 3 mps 656 mmHg 54%
    16:00 +12°C° 0.1 mm 3 mps 656 mmHg 54%
    17:00 +11°C° 0.5 mm 3 mps 656 mmHg 57%
    18:00 +11°C° 0.5 mm 3 mps 656 mmHg 59%
    19:00 +10°C° 0.5 mm 4 mps 657 mmHg 61%
    20:00 +9°C° 0.3 mm 3 mps 657 mmHg 62%
    21:00 +9°C° 0.3 mm 3 mps 657 mmHg 62%
    22:00 +9°C° 0.3 mm 3 mps 657 mmHg 62%
    23:00 +8°C° 0.1 mm 2 mps 657 mmHg 64%
    Show more